N3TW MBPV-KMIA

Flight info

Callsign N3TW
Flight time 1h 31m
Altitude 43000
Route MICAS4 MICAS DCT FODED Y308 MADIZ VIICE2
Aircraft C750/M-SBDE3FGHRWXY/S

Departure

Time 2026-04-24 20:24
Airport Providenciales International Airport (MBPV)

Arrival

Time 2026-04-24 21:55
Airport Miami International Airport (KMIA)
Time Latitude Longitude Altitude Speed Heading
2026-04-24 20:23 21.76997 -72.20029 4031 ft 207 kts 92°
2026-04-24 20:24 21.77138 -72.18997 4604 ft 214 kts 71°
2026-04-24 20:24 21.78492 -72.17428 5798 ft 223 kts 27°
2026-04-24 20:24 21.80018 -72.17166 6698 ft 224 kts 358°
2026-04-24 20:24 21.81546 -72.17306 7687 ft 223 kts 353°
2026-04-24 20:25 21.83102 -72.17452 8711 ft 225 kts 354°
2026-04-24 20:25 21.84663 -72.17579 9746 ft 225 kts 353°
2026-04-24 20:25 21.86223 -72.17706 10654 ft 223 kts 353°
2026-04-24 20:25 21.87770 -72.17836 11537 ft 223 kts 353°
2026-04-24 20:26 21.89316 -72.17966 12397 ft 223 kts 352°
2026-04-24 20:26 21.90863 -72.18096 13259 ft 223 kts 352°
2026-04-24 20:26 21.92411 -72.18225 14057 ft 223 kts 351°
2026-04-24 20:26 21.93962 -72.18355 14807 ft 223 kts 351°
2026-04-24 20:27 21.95511 -72.18485 15554 ft 223 kts 351°
2026-04-24 20:27 21.97039 -72.18613 16295 ft 223 kts 350°
2026-04-24 20:27 21.98588 -72.18781 17037 ft 221 kts 342°
2026-04-24 20:27 21.99896 -72.19554 17662 ft 212 kts 309°
2026-04-24 20:28 22.00480 -72.20370 18166 ft 205 kts 294°
2026-04-24 20:28 22.01399 -72.22134 19153 ft 202 kts 292°
2026-04-24 20:28 22.02094 -72.23447 19885 ft 201 kts 292°
2026-04-24 20:28 22.02785 -72.24760 20614 ft 201 kts 291°
2026-04-24 20:29 22.03242 -72.25630 21098 ft 201 kts 291°
2026-04-24 20:29 22.03934 -72.26948 21826 ft 201 kts 291°
2026-04-24 20:29 22.04625 -72.28265 22560 ft 202 kts 291°
2026-04-24 20:29 22.05320 -72.29587 23301 ft 202 kts 291°
2026-04-24 20:30 22.06010 -72.30902 23934 ft 202 kts 291°
2026-04-24 20:30 22.06701 -72.32222 24466 ft 202 kts 290°
2026-04-24 20:30 22.07395 -72.33544 25001 ft 203 kts 290°
2026-04-24 20:30 22.08089 -72.34866 25543 ft 202 kts 290°
2026-04-24 20:31 22.08781 -72.36185 26084 ft 202 kts 290°
2026-04-24 20:31 22.09474 -72.37507 26606 ft 203 kts 289°
2026-04-24 20:31 22.10169 -72.38832 27127 ft 203 kts 289°
2026-04-24 20:31 22.10865 -72.40161 27642 ft 204 kts 289°
2026-04-24 20:32 22.11564 -72.41497 28154 ft 205 kts 289°
2026-04-24 20:32 22.12267 -72.42839 28650 ft 206 kts 289°
2026-04-24 20:32 22.12969 -72.44180 29149 ft 208 kts 288°
2026-04-24 20:32 22.13684 -72.45542 29654 ft 209 kts 288°
2026-04-24 20:33 22.14406 -72.46908 30126 ft 210 kts 288°
2026-04-24 20:33 22.15124 -72.48270 30528 ft 211 kts 288°
2026-04-24 20:33 22.15854 -72.49655 30942 ft 211 kts 288°
2026-04-24 20:33 22.16581 -72.51036 31347 ft 212 kts 287°
2026-04-24 20:34 22.17312 -72.52425 31749 ft 213 kts 287°
2026-04-24 20:34 22.18047 -72.53821 32149 ft 214 kts 287°
2026-04-24 20:34 22.18783 -72.55222 32549 ft 215 kts 287°
2026-04-24 20:34 22.19523 -72.56628 32938 ft 216 kts 287°
2026-04-24 20:35 22.20258 -72.58025 33321 ft 217 kts 287°
2026-04-24 20:35 22.21005 -72.59445 33701 ft 218 kts 286°
2026-04-24 20:35 22.21755 -72.60874 34062 ft 219 kts 286°
2026-04-24 20:35 22.22510 -72.62311 34398 ft 220 kts 286°
2026-04-24 20:36 22.23267 -72.63750 34742 ft 221 kts 285°
2026-04-24 20:36 22.24028 -72.65199 35106 ft 220 kts 285°
2026-04-24 20:36 22.24783 -72.66636 35475 ft 220 kts 285°
2026-04-24 20:36 22.25525 -72.68050 35845 ft 219 kts 284°
2026-04-24 20:37 22.26273 -72.69472 36212 ft 216 kts 284°
2026-04-24 20:37 22.27010 -72.70876 36548 ft 214 kts 284°
2026-04-24 20:37 22.27743 -72.72275 36867 ft 213 kts 283°
2026-04-24 20:37 22.28471 -72.73665 37173 ft 212 kts 283°
2026-04-24 20:38 22.29198 -72.75054 37460 ft 213 kts 283°
2026-04-24 20:38 22.29933 -72.76463 37742 ft 216 kts 283°
2026-04-24 20:38 22.30671 -72.77871 38030 ft 219 kts 283°
2026-04-24 20:38 22.31427 -72.79311 38357 ft 219 kts 283°
2026-04-24 20:39 22.32178 -72.80740 38689 ft 218 kts 283°
2026-04-24 20:39 22.32922 -72.82160 38944 ft 217 kts 283°
2026-04-24 20:39 22.33663 -72.83582 39144 ft 218 kts 283°
2026-04-24 20:39 22.34415 -72.85025 39294 ft 222 kts 283°
2026-04-24 20:40 22.35185 -72.86501 39434 ft 227 kts 284°
2026-04-24 20:40 22.35961 -72.87981 39609 ft 229 kts 284°
2026-04-24 20:40 22.36751 -72.89486 39844 ft 229 kts 284°
2026-04-24 20:40 22.37534 -72.90979 40107 ft 227 kts 284°
2026-04-24 20:41 22.38308 -72.92461 40353 ft 226 kts 284°
2026-04-24 20:41 22.39082 -72.93949 40527 ft 229 kts 284°
2026-04-24 20:41 22.39869 -72.95464 40644 ft 234 kts 285°
2026-04-24 20:41 22.40674 -72.97005 40793 ft 237 kts 285°
2026-04-24 20:42 22.41488 -72.98558 41022 ft 237 kts 285°
2026-04-24 20:42 22.42297 -73.00102 41298 ft 235 kts 285°
2026-04-24 20:42 22.43094 -73.01632 41551 ft 233 kts 285°
2026-04-24 20:42 22.43891 -73.03166 41729 ft 235 kts 285°
2026-04-24 20:43 22.44697 -73.04717 41841 ft 239 kts 286°
2026-04-24 20:43 22.45518 -73.06294 41951 ft 243 kts 286°
2026-04-24 20:43 22.46353 -73.07895 42102 ft 245 kts 287°
2026-04-24 20:43 22.47192 -73.09502 42298 ft 245 kts 287°
2026-04-24 20:44 22.48021 -73.11092 42527 ft 245 kts 287°
2026-04-24 20:44 22.48860 -73.12703 42741 ft 244 kts 287°
2026-04-24 20:44 22.49700 -73.14322 42863 ft 247 kts 287°
2026-04-24 20:44 22.50542 -73.15952 42849 ft 255 kts 287°
2026-04-24 20:45 22.51421 -73.17642 42878 ft 261 kts 288°
2026-04-24 20:45 22.52321 -73.19370 42914 ft 267 kts 288°
2026-04-24 20:45 22.53244 -73.21148 42921 ft 274 kts 288°
2026-04-24 20:45 22.54194 -73.22978 42930 ft 281 kts 288°
2026-04-24 20:46 22.55168 -73.24854 42940 ft 289 kts 289°
2026-04-24 20:46 22.56155 -73.26756 42941 ft 296 kts 289°
2026-04-24 20:46 22.58217 -73.30730 42968 ft 311 kts 289°
2026-04-24 20:47 22.60382 -73.34907 42971 ft 327 kts 290°
2026-04-24 20:47 22.62657 -73.39301 42971 ft 342 kts 290°
2026-04-24 20:48 22.65037 -73.43899 42965 ft 357 kts 290°
2026-04-24 20:48 22.67494 -73.48653 42968 ft 371 kts 291°
2026-04-24 20:49 22.70067 -73.53633 42973 ft 384 kts 291°
2026-04-24 20:49 22.72707 -73.58750 42971 ft 397 kts 291°
2026-04-24 20:50 22.75451 -73.64073 42968 ft 409 kts 291°
2026-04-24 20:50 22.78263 -73.69535 42966 ft 421 kts 291°
2026-04-24 20:51 22.81160 -73.75167 42971 ft 432 kts 292°
2026-04-24 20:51 22.84108 -73.80907 42966 ft 443 kts 292°
2026-04-24 20:52 22.87146 -73.86825 42975 ft 452 kts 292°
2026-04-24 20:52 22.90213 -73.92809 42961 ft 458 kts 292°
2026-04-24 20:53 22.93328 -73.98891 42959 ft 462 kts 292°
2026-04-24 20:53 22.96441 -74.04978 42960 ft 463 kts 292°
2026-04-24 20:54 22.99570 -74.11106 42965 ft 463 kts 292°
2026-04-24 20:54 23.02684 -74.17210 42959 ft 464 kts 292°
2026-04-24 20:55 23.05796 -74.23319 42968 ft 464 kts 292°
2026-04-24 20:55 23.08927 -74.29474 42967 ft 464 kts 292°
2026-04-24 20:56 23.12054 -74.35627 42965 ft 465 kts 292°
2026-04-24 20:56 23.15162 -74.41750 42965 ft 465 kts 292°
2026-04-24 20:57 23.18294 -74.47929 42966 ft 465 kts 292°
2026-04-24 20:57 23.21402 -74.54067 42962 ft 466 kts 292°
2026-04-24 20:58 23.24537 -74.60266 42963 ft 466 kts 292°
2026-04-24 20:58 23.27658 -74.66446 42964 ft 466 kts 292°
2026-04-24 20:59 23.30764 -74.72604 42961 ft 466 kts 292°
2026-04-24 20:59 23.33888 -74.78804 42960 ft 467 kts 292°
2026-04-24 21:00 23.36999 -74.84985 42966 ft 466 kts 292°
2026-04-24 21:00 23.40035 -74.91201 42945 ft 464 kts 289°
2026-04-24 21:01 23.42785 -74.97571 42959 ft 464 kts 289°
2026-04-24 21:01 23.45553 -75.03907 42962 ft 465 kts 289°
2026-04-24 21:02 23.48310 -75.10277 42962 ft 466 kts 289°
2026-04-24 21:02 23.51088 -75.16678 42967 ft 466 kts 289°
2026-04-24 21:03 23.53849 -75.23061 42964 ft 466 kts 289°
2026-04-24 21:03 23.56614 -75.29455 42963 ft 466 kts 289°
2026-04-24 21:04 23.59366 -75.35833 42957 ft 466 kts 289°
2026-04-24 21:04 23.62130 -75.42244 42952 ft 466 kts 289°
2026-04-24 21:05 23.64882 -75.48637 42957 ft 467 kts 289°
2026-04-24 21:05 23.67645 -75.55065 42958 ft 467 kts 290°
2026-04-24 21:06 23.70391 -75.61461 42962 ft 467 kts 290°
2026-04-24 21:06 23.73154 -75.67908 42966 ft 467 kts 290°
2026-04-24 21:07 23.75900 -75.74320 42969 ft 468 kts 290°
2026-04-24 21:07 23.78660 -75.80776 42965 ft 468 kts 290°
2026-04-24 21:08 23.81402 -75.87199 42967 ft 468 kts 290°
2026-04-24 21:08 23.84134 -75.93610 42970 ft 467 kts 290°
2026-04-24 21:09 23.86886 -76.00074 42963 ft 467 kts 290°
2026-04-24 21:09 23.89631 -76.06530 42972 ft 467 kts 290°
2026-04-24 21:10 23.92357 -76.12952 42971 ft 467 kts 290°
2026-04-24 21:10 23.95077 -76.19368 42967 ft 467 kts 291°
2026-04-24 21:11 23.97805 -76.25812 42966 ft 467 kts 291°
2026-04-24 21:11 24.00533 -76.32266 42964 ft 467 kts 291°
2026-04-24 21:12 24.02794 -76.37620 42967 ft 467 kts 291°
2026-04-24 21:12 24.05967 -76.45147 42970 ft 466 kts 291°
2026-04-24 21:13 24.08682 -76.51597 42972 ft 466 kts 291°
2026-04-24 21:13 24.11321 -76.58070 42939 ft 464 kts 287°
2026-04-24 21:14 24.12718 -76.63705 42940 ft 463 kts 285°
2026-04-24 21:14 24.15368 -76.70161 42974 ft 467 kts 292°
2026-04-24 21:15 24.18074 -76.76631 42969 ft 465 kts 291°
2026-04-24 21:15 24.20785 -76.83041 42964 ft 465 kts 292°
2026-04-24 21:16 24.23503 -76.89492 42967 ft 465 kts 291°
2026-04-24 21:16 24.26195 -76.95900 42971 ft 464 kts 292°
2026-04-24 21:17 24.28910 -77.02354 42969 ft 464 kts 292°
2026-04-24 21:17 24.31593 -77.08758 42974 ft 464 kts 292°
2026-04-24 21:18 24.34283 -77.15177 42976 ft 463 kts 292°
2026-04-24 21:18 24.36966 -77.21593 42970 ft 463 kts 292°
2026-04-24 21:19 24.39646 -77.28010 42971 ft 462 kts 292°
2026-04-24 21:19 24.42319 -77.34421 42977 ft 462 kts 292°
2026-04-24 21:20 24.46320 -77.44031 42971 ft 461 kts 292°
2026-04-24 21:21 24.48984 -77.50441 42971 ft 461 kts 292°
2026-04-24 21:21 24.51623 -77.56801 42977 ft 461 kts 292°
2026-04-24 21:22 24.54283 -77.63221 42979 ft 461 kts 292°
2026-04-24 21:22 24.56937 -77.69636 42973 ft 461 kts 292°
2026-04-24 21:23 24.59593 -77.76064 42975 ft 461 kts 292°
2026-04-24 21:23 24.62239 -77.82477 42980 ft 461 kts 292°
2026-04-24 21:24 24.64885 -77.88901 42980 ft 461 kts 292°
2026-04-24 21:24 24.67509 -77.95281 42980 ft 461 kts 292°
2026-04-24 21:25 24.70149 -78.01708 42978 ft 460 kts 292°
2026-04-24 21:25 24.72789 -78.08144 42971 ft 460 kts 292°
2026-04-24 21:26 24.75402 -78.14524 42978 ft 460 kts 292°
2026-04-24 21:26 24.78027 -78.20941 42972 ft 459 kts 292°
2026-04-24 21:27 24.80644 -78.27350 42974 ft 459 kts 292°
2026-04-24 21:27 24.81945 -78.30538 42832 ft 451 kts 292°
2026-04-24 21:27 24.83217 -78.33656 42177 ft 440 kts 292°
2026-04-24 21:27 24.84455 -78.36694 41604 ft 429 kts 292°
2026-04-24 21:28 24.85661 -78.39660 41053 ft 419 kts 292°
2026-04-24 21:28 24.86840 -78.42558 40507 ft 410 kts 292°
2026-04-24 21:28 24.87998 -78.45409 39991 ft 406 kts 292°
2026-04-24 21:28 24.89151 -78.48247 39450 ft 406 kts 292°
2026-04-24 21:29 24.90310 -78.51103 38919 ft 412 kts 292°
2026-04-24 21:29 24.91473 -78.53972 38334 ft 418 kts 292°
2026-04-24 21:29 24.92667 -78.56914 37780 ft 420 kts 292°
2026-04-24 21:29 24.93860 -78.59859 37223 ft 422 kts 292°
2026-04-24 21:30 24.95063 -78.62830 36662 ft 423 kts 292°
2026-04-24 21:30 24.96262 -78.65793 36103 ft 424 kts 293°
2026-04-24 21:30 24.97453 -78.68739 35550 ft 425 kts 293°
2026-04-24 21:30 24.98661 -78.71727 34978 ft 426 kts 293°
2026-04-24 21:31 24.99870 -78.74722 34420 ft 427 kts 293°
2026-04-24 21:31 25.01079 -78.77719 33837 ft 428 kts 293°
2026-04-24 21:31 25.02290 -78.80721 33249 ft 427 kts 293°
2026-04-24 21:31 25.03489 -78.83696 32697 ft 423 kts 293°
2026-04-24 21:32 25.04679 -78.86649 32133 ft 419 kts 293°
2026-04-24 21:32 25.05845 -78.89550 31592 ft 416 kts 293°
2026-04-24 21:32 25.07016 -78.92461 31040 ft 413 kts 293°
2026-04-24 21:32 25.08178 -78.95352 30499 ft 410 kts 293°
2026-04-24 21:33 25.09330 -78.98221 29946 ft 407 kts 292°
2026-04-24 21:33 25.10471 -79.01064 29380 ft 403 kts 292°
2026-04-24 21:33 25.11603 -79.03887 28861 ft 401 kts 292°
2026-04-24 21:33 25.12725 -79.06686 28331 ft 398 kts 292°
2026-04-24 21:34 25.13841 -79.09472 27806 ft 395 kts 293°
2026-04-24 21:34 25.14947 -79.12236 27284 ft 392 kts 292°
2026-04-24 21:34 25.16034 -79.14954 26776 ft 390 kts 292°
2026-04-24 21:34 25.17126 -79.17685 26275 ft 387 kts 292°
2026-04-24 21:35 25.18210 -79.20397 25755 ft 384 kts 292°
2026-04-24 21:35 25.19288 -79.23099 25246 ft 382 kts 292°
2026-04-24 21:35 25.20347 -79.25752 24751 ft 380 kts 292°
2026-04-24 21:35 25.21412 -79.28423 24251 ft 378 kts 292°
2026-04-24 21:36 25.22468 -79.31074 23753 ft 376 kts 292°
2026-04-24 21:36 25.23518 -79.33710 23217 ft 373 kts 292°
2026-04-24 21:36 25.24556 -79.36318 22722 ft 369 kts 292°
2026-04-24 21:36 25.25585 -79.38904 22239 ft 367 kts 292°
2026-04-24 21:37 25.26374 -79.41557 21683 ft 364 kts 281°
2026-04-24 21:37 25.26687 -79.44316 21211 ft 360 kts 276°
2026-04-24 21:37 25.26943 -79.47056 20776 ft 358 kts 277°
2026-04-24 21:37 25.27323 -79.49759 20342 ft 356 kts 281°
2026-04-24 21:38 25.27892 -79.52415 19913 ft 353 kts 285°
2026-04-24 21:38 25.28673 -79.54984 19490 ft 352 kts 290°
2026-04-24 21:38 25.29730 -79.57414 19052 ft 351 kts 298°
2026-04-24 21:38 25.31091 -79.59642 18636 ft 349 kts 304°
2026-04-24 21:39 25.32530 -79.61756 18253 ft 347 kts 305°
2026-04-24 21:39 25.33909 -79.63940 17808 ft 345 kts 301°
2026-04-24 21:39 25.35170 -79.66183 17373 ft 342 kts 300°
2026-04-24 21:39 25.36441 -79.68404 16943 ft 341 kts 302°
2026-04-24 21:40 25.37761 -79.70583 16523 ft 340 kts 302°
2026-04-24 21:40 25.39084 -79.72743 16108 ft 338 kts 303°
2026-04-24 21:40 25.40455 -79.74850 15701 ft 337 kts 303°
2026-04-24 21:40 25.41791 -79.76977 15303 ft 335 kts 303°
2026-04-24 21:41 25.43127 -79.79083 14914 ft 334 kts 304°
2026-04-24 21:41 25.44477 -79.81168 14534 ft 333 kts 304°
2026-04-24 21:41 25.45818 -79.83247 14157 ft 331 kts 304°
2026-04-24 21:41 25.47145 -79.85323 13790 ft 330 kts 304°
2026-04-24 21:42 25.48465 -79.87388 13379 ft 328 kts 304°
2026-04-24 21:42 25.49783 -79.89444 12988 ft 327 kts 304°
2026-04-24 21:42 25.51095 -79.91490 12588 ft 325 kts 304°
2026-04-24 21:42 25.52165 -79.93162 12293 ft 323 kts 304°
2026-04-24 21:43 25.53423 -79.95129 11942 ft 323 kts 304°
2026-04-24 21:43 25.54720 -79.97156 11570 ft 322 kts 304°
2026-04-24 21:43 25.55997 -79.99152 11195 ft 310 kts 304°
2026-04-24 21:43 25.57208 -80.01047 10803 ft 294 kts 304°
2026-04-24 21:44 25.58368 -80.02862 10399 ft 284 kts 304°
2026-04-24 21:44 25.59501 -80.04637 10003 ft 280 kts 304°
2026-04-24 21:44 25.60621 -80.06393 9598 ft 280 kts 304°
2026-04-24 21:44 25.61745 -80.08155 9178 ft 280 kts 304°
2026-04-24 21:45 25.62862 -80.09904 8949 ft 273 kts 304°
2026-04-24 21:45 25.63956 -80.11620 8959 ft 275 kts 304°
2026-04-24 21:45 25.65064 -80.13360 8969 ft 277 kts 304°
2026-04-24 21:45 25.66014 -80.15234 8835 ft 282 kts 295°
2026-04-24 21:46 25.66833 -80.17227 8559 ft 286 kts 294°
2026-04-24 21:46 25.67663 -80.19221 8270 ft 283 kts 295°
2026-04-24 21:46 25.68502 -80.21174 7984 ft 279 kts 295°
2026-04-24 21:46 25.69330 -80.23105 7698 ft 274 kts 295°
2026-04-24 21:47 25.70133 -80.24999 7118 ft 271 kts 295°
2026-04-24 21:47 25.70664 -80.26256 6696 ft 272 kts 295°
2026-04-24 21:47 25.71226 -80.28917 5689 ft 273 kts 268°
2026-04-24 21:47 25.71100 -80.31021 5057 ft 271 kts 265°
2026-04-24 21:48 25.70986 -80.33107 4440 ft 270 kts 266°
2026-04-24 21:48 25.70898 -80.35182 3837 ft 269 kts 266°
2026-04-24 21:48 25.70806 -80.37252 3279 ft 268 kts 266°
2026-04-24 21:48 25.70706 -80.39298 2936 ft 258 kts 266°
2026-04-24 21:49 25.70615 -80.41190 2940 ft 235 kts 266°
2026-04-24 21:49 25.70532 -80.42938 2938 ft 222 kts 266°
2026-04-24 21:49 25.70450 -80.44639 2939 ft 220 kts 265°
2026-04-24 21:49 25.70369 -80.46339 2948 ft 222 kts 266°
2026-04-24 21:50 25.70503 -80.48042 2887 ft 226 kts 290°
2026-04-24 21:50 25.71525 -80.49293 2855 ft 226 kts 332°
2026-04-24 21:50 25.73027 -80.49723 2955 ft 224 kts 352°
2026-04-24 21:50 25.74590 -80.49754 2899 ft 227 kts 15°
2026-04-24 21:51 25.75860 -80.48802 2847 ft 218 kts 47°
2026-04-24 21:51 25.76818 -80.47503 2442 ft 220 kts 53°
2026-04-24 21:51 25.77764 -80.46174 2109 ft 219 kts 53°
2026-04-24 21:51 25.78704 -80.44869 1953 ft 212 kts 53°
2026-04-24 21:52 25.79423 -80.43487 1864 ft 207 kts 79°
2026-04-24 21:52 25.79179 -80.41974 1895 ft 200 kts 114°
2026-04-24 21:52 25.78554 -80.40571 1962 ft 202 kts 114°
2026-04-24 21:52 25.78285 -80.39184 1907 ft 167 kts 91°
2026-04-24 21:53 25.78355 -80.37989 1780 ft 148 kts 89°
2026-04-24 21:53 25.78390 -80.36798 1029 ft 162 kts 89°
2026-04-24 21:53 25.78444 -80.35599 768 ft 142 kts 88°
2026-04-24 21:53 25.78489 -80.34574 639 ft 129 kts 92°
2026-04-24 21:54 25.78525 -80.33590 488 ft 126 kts 92°
2026-04-24 21:54 25.78567 -80.32610 347 ft 128 kts 90°
2026-04-24 21:54 25.78614 -80.31614 123 ft 129 kts 91°
2026-04-24 21:54 25.78648 -80.30647 14 ft 116 kts 90°
2026-04-24 21:55 25.78671 -80.30006 10 ft 48 kts 88°
2026-04-24 21:55 25.78699 -80.29822 11 ft 8 kts 43°
2026-04-24 21:55 25.78740 -80.29820 12 ft 3 kts 338°
2026-04-24 21:55 25.78748 -80.29824 12 ft 1 kts 335°
2026-04-24 21:56 25.78756 -80.29829 12 ft 0 kts 331°
2026-04-24 21:56 25.78761 -80.29832 12 ft 2 kts 331°
2026-04-24 21:56 25.78763 -80.29833 12 ft 0 kts 331°
2026-04-24 21:56 25.78769 -80.29837 12 ft 2 kts 331°
2026-04-24 21:57 25.78783 -80.29840 12 ft 2 kts 10°
2026-04-24 21:57 25.78790 -80.29824 12 ft 4 kts 88°
2026-04-24 21:57 25.78790 -80.29760 12 ft 10 kts 88°
2026-04-24 21:57 25.78793 -80.29675 12 ft 12 kts 88°
2026-04-24 21:58 25.78798 -80.29582 12 ft 12 kts 85°
2026-04-24 21:58 25.78805 -80.29483 12 ft 13 kts 90°
2026-04-24 21:58 25.78807 -80.29383 11 ft 13 kts 86°
2026-04-24 21:58 25.78812 -80.29277 11 ft 14 kts 90°
2026-04-24 21:59 25.78816 -80.29170 11 ft 14 kts 86°
2026-04-24 21:59 25.78822 -80.29058 11 ft 15 kts 86°
2026-04-24 21:59 25.78842 -80.28943 11 ft 15 kts 75°
2026-04-24 21:59 25.78900 -80.28872 11 ft 14 kts
2026-04-24 22:00 25.78999 -80.28875 11 ft 15 kts 357°
2026-04-24 22:00 25.79107 -80.28881 11 ft 14 kts 358°
2026-04-24 22:00 25.79134 -80.28883 10 ft 0 kts 358°
2026-04-24 22:00 25.79135 -80.28883 10 ft 0 kts 358°
2026-04-24 22:01 25.79136 -80.28883 10 ft 1 kts 358°
2026-04-24 22:03 25.79137 -80.28883 10 ft 1 kts 358°
2026-04-24 22:03 25.79173 -80.28885 10 ft 9 kts 359°
2026-04-24 22:03 25.79264 -80.28883 10 ft 17 kts 359°
2026-04-24 22:03 25.79401 -80.28884 11 ft 23 kts
2026-04-24 22:04 25.79560 -80.28884 12 ft 5 kts 352°
2026-04-24 22:04 25.79561 -80.28884 12 ft 0 kts 352°
2026-04-24 22:05 25.79574 -80.28890 12 ft 8 kts 336°
2026-04-24 22:05 25.79672 -80.28904 12 ft 22 kts 359°
2026-04-24 22:06 25.79828 -80.28914 12 ft 22 kts 359°
2026-04-24 22:06 25.79872 -80.28915 12 ft 1 kts 359°
2026-04-24 22:06 25.79920 -80.28916 12 ft 12 kts 359°
2026-04-24 22:06 25.80006 -80.28957 12 ft 15 kts 287°
2026-04-24 22:07 25.80010 -80.29038 13 ft 7 kts 270°
2026-04-24 22:07 25.80008 -80.29096 13 ft 9 kts 262°
2026-04-24 22:07 25.80001 -80.29176 13 ft 13 kts 269°
2026-04-24 22:07 25.79997 -80.29293 12 ft 15 kts 277°
2026-04-24 22:08 25.80064 -80.29320 13 ft 11 kts 26°
2026-04-24 22:08 25.80137 -80.29279 12 ft 12 kts 37°
2026-04-24 22:08 25.80164 -80.29254 12 ft 2 kts 40°
2026-04-24 22:08 25.80170 -80.29249 12 ft 2 kts 40°
2026-04-24 22:09 25.80186 -80.29225 12 ft 7 kts 56°
2026-04-24 22:09 25.80227 -80.29171 12 ft 8 kts 34°
2026-04-24 22:09 25.80248 -80.29156 12 ft 0 kts 32°
2026-04-24 22:10 25.80267 -80.29143 12 ft 10 kts 32°
2026-04-24 22:10 25.80376 -80.29132 12 ft 14 kts 329°
2026-04-24 22:10 25.80455 -80.29144 12 ft 13 kts 14°
2026-04-24 22:11 25.80546 -80.29138 11 ft 11 kts
2026-04-24 22:11 25.80619 -80.29126 11 ft 12 kts 40°
2026-04-24 22:11 25.80633 -80.29051 11 ft 6 kts 119°
2026-04-24 22:11 25.80620 -80.29047 11 ft 0 kts 172°